Date String (YYYY-MM-DD hh:mm:ss) UTC,Instrument flags,Ambient pressure (hPa),Sample flow (lpm),Bypass flow (lpm),Sample temperature (°C),Ambient temperature (°C),ASC tube jacket temperature (°C),LED temperature (°C),Box temperature (°C),Sample RH (%),Span deviation,Mass concentration (μg/m³),Mass concentration (μg/m³),Mass concentration (μg/m³)
DateTimeUTC,F1_M11,P_M11,Q1_M11,Q2_M11,T1_M11,T2_M11,T3_M11,T4_M11,T5_M11,U1_M11,ZSPAN_M11,X0_M11,X2_M11,X1_M11
2022-07-09 17:00:00,,0833.4,5.00,0.00,29.4,27.1,00.0,38.0,31.2,24.7,0000.0,0010.70,0004.00,0003.41
2022-07-09 17:01:00,,0833.4,5.00,0.00,29.3,27.2,00.0,38.0,31.2,24.7,0000.0,0010.70,0003.96,0003.38
2022-07-09 17:02:00,,0833.4,5.00,0.00,29.3,27.3,00.0,38.0,31.1,24.4,0000.0,0010.52,0003.90,0003.36
2022-07-09 17:03:00,,0833.4,4.99,0.00,29.3,27.5,00.0,38.0,31.1,24.2,0000.0,0010.60,0003.93,0003.37
2022-07-09 17:04:00,,0833.4,5.00,0.00,29.3,27.7,00.0,38.0,31.1,23.4,0000.0,0011.21,0003.96,0003.36
2022-07-09 17:05:00,,0833.4,5.00,0.00,29.3,27.9,00.0,38.0,31.2,23.7,0000.0,0012.22,0003.95,0003.35
2022-07-09 17:06:00,,0833.4,4.99,0.00,29.4,28.0,00.0,38.1,31.3,23.5,0000.0,0012.56,0003.92,0003.34
2022-07-09 17:07:00,,0833.5,5.00,0.00,29.4,28.2,00.0,38.1,31.3,24.1,0000.0,0012.82,0003.90,0003.34
2022-07-09 17:08:00,,0833.5,5.00,0.00,29.4,28.0,00.0,38.1,31.4,22.0,0000.0,0013.03,0003.88,0003.32
2022-07-09 17:09:00,,0833.4,5.01,0.00,29.4,27.4,00.0,38.0,31.2,21.3,0000.0,0012.33,0003.84,0003.30
2022-07-09 17:10:00,,0833.4,5.00,0.00,29.4,27.2,00.0,38.0,31.2,22.9,0000.0,0011.90,0003.84,0003.29
2022-07-09 17:11:00,,0833.5,5.00,0.00,29.3,27.3,00.0,38.0,31.1,23.1,0000.0,0011.39,0003.85,0003.30
2022-07-09 17:12:00,,0833.5,4.99,0.00,29.3,27.4,00.0,38.0,31.1,23.2,0000.0,0011.13,0003.85,0003.29
2022-07-09 17:13:00,,0833.4,4.99,0.00,29.3,27.6,00.0,38.0,31.1,23.3,0000.0,0011.16,0003.89,0003.29
2022-07-09 17:14:00,,0833.4,5.00,0.00,29.3,27.8,00.0,38.0,31.2,22.8,0000.0,0011.07,0003.87,0003.29
2022-07-09 17:15:00,,0833.4,5.01,0.00,29.3,28.0,00.0,38.1,31.2,22.8,0000.0,0010.50,0003.86,0003.30
2022-07-09 17:16:00,,0833.4,4.99,0.00,29.4,28.1,00.0,38.1,31.3,23.5,0000.0,0009.09,0003.87,0003.32
2022-07-09 17:17:00,,0833.4,5.01,0.00,29.4,27.6,00.0,38.0,31.2,23.2,0000.0,0008.25,0003.87,0003.33
2022-07-09 17:18:00,,0833.3,5.00,0.00,29.3,27.2,00.0,38.0,31.2,22.8,0000.0,0007.68,0003.85,0003.33
2022-07-09 17:19:00,,0833.3,5.01,0.00,29.3,27.2,00.0,38.0,31.1,23.2,0000.0,0007.46,0003.86,0003.34
2022-07-09 17:20:00,,0833.3,4.99,0.00,29.3,27.3,00.0,38.0,31.1,22.3,0000.0,0007.56,0003.88,0003.35
2022-07-09 17:21:00,,0833.3,5.00,0.00,29.3,27.5,00.0,38.0,31.1,21.6,0000.0,0008.01,0003.89,0003.35
2022-07-09 17:22:00,,0833.3,5.01,0.00,29.3,27.7,00.0,38.0,31.1,22.4,0000.0,0008.69,0003.89,0003.34
2022-07-09 17:23:00,,0833.3,5.00,0.00,29.3,27.9,00.0,38.0,31.2,23.1,0000.0,0008.80,0003.92,0003.35
2022-07-09 17:24:00,,0833.3,5.01,0.00,29.3,28.0,00.0,38.0,31.3,23.0,0000.0,0008.89,0003.88,0003.35
2022-07-09 17:25:00,,0833.2,5.00,0.00,29.4,27.9,00.0,38.0,31.3,23.5,0000.0,0009.74,0003.89,0003.35
2022-07-09 17:26:00,,0833.2,5.00,0.00,29.3,27.3,00.0,38.0,31.2,23.0,0000.0,0009.88,0003.87,0003.36
2022-07-09 17:27:00,,0833.3,5.00,0.00,29.3,27.2,00.0,37.9,31.1,22.6,0000.0,0009.76,0003.84,0003.35
2022-07-09 17:28:00,,0833.3,5.00,0.00,29.3,27.2,00.0,37.9,31.1,21.7,0000.0,0009.77,0003.81,0003.34
2022-07-09 17:29:00,,0833.3,5.00,0.00,29.3,27.4,00.0,37.9,31.0,19.3,0000.0,0009.74,0003.81,0003.33
2022-07-09 17:30:00,,0833.3,4.99,0.00,29.3,27.6,00.0,38.0,31.1,20.4,0000.0,0009.79,0003.79,0003.30
2022-07-09 17:31:00,,0833.2,4.99,0.00,29.3,27.8,00.0,38.0,31.1,20.9,0000.0,0009.84,0003.81,0003.29
2022-07-09 17:32:00,,0833.3,5.00,0.00,29.3,27.9,00.0,38.0,31.2,22.0,0000.0,0009.55,0003.84,0003.29
2022-07-09 17:33:00,,0833.3,4.99,0.00,29.3,28.1,00.0,38.0,31.3,23.1,0000.0,0008.87,0003.83,0003.29
2022-07-09 17:34:00,,0833.3,5.00,0.00,29.3,27.6,00.0,38.0,31.2,22.9,0000.0,0008.81,0003.81,0003.28
2022-07-09 17:35:00,,0833.3,5.00,0.00,29.3,27.2,00.0,37.9,31.1,22.9,0000.0,0009.63,0003.85,0003.28
2022-07-09 17:36:00,,0833.3,5.00,0.00,29.3,27.2,00.0,37.9,31.1,22.4,0000.0,0009.10,0003.85,0003.26
2022-07-09 17:37:00,,0833.3,5.00,0.00,29.2,27.3,00.0,37.9,31.0,21.8,0000.0,0009.61,0003.86,0003.25
2022-07-09 17:38:00,,0833.3,5.01,0.00,29.2,27.5,00.0,37.9,31.0,18.1,0000.0,0009.93,0003.86,0003.22
2022-07-09 17:39:00,,0833.3,5.00,0.00,29.2,27.7,00.0,37.9,31.1,16.7,0000.0,0009.78,0003.81,0003.19
2022-07-09 17:40:00,,0833.3,5.01,0.00,29.3,27.9,00.0,38.0,31.2,18.3,0000.0,0009.69,0003.78,0003.17
2022-07-09 17:41:00,,0833.3,5.01,0.00,29.3,28.0,00.0,38.0,31.2,20.0,0000.0,0010.44,0003.77,0003.18
2022-07-09 17:42:00,,0833.2,5.00,0.00,29.3,27.5,00.0,37.9,31.2,20.2,0000.0,0010.32,0003.75,0003.18
2022-07-09 17:43:00,,0833.2,4.99,0.00,29.3,27.1,00.0,37.9,31.1,19.4,0000.0,0010.20,0003.70,0003.16
2022-07-09 17:44:00,,0833.2,5.00,0.00,29.2,27.1,00.0,37.9,31.1,20.8,0000.0,0010.27,0003.71,0003.15
2022-07-09 17:45:00,,0833.2,5.01,0.00,29.2,27.2,00.0,37.9,31.0,21.7,0000.0,0010.29,0003.70,0003.14
2022-07-09 17:46:00,,0833.2,5.00,0.00,29.2,27.4,00.0,37.9,31.0,21.5,0000.0,0009.92,0003.65,0003.13
2022-07-09 17:47:00,,0833.1,5.00,0.00,29.2,27.6,00.0,37.9,31.1,20.9,0000.0,0010.05,0003.61,0003.12
2022-07-09 17:48:00,,0833.1,5.01,0.00,29.2,27.8,00.0,37.9,31.1,20.7,0000.0,0009.68,0003.60,0003.09
2022-07-09 17:49:00,,0833.1,4.99,0.00,29.3,28.0,00.0,38.0,31.2,20.0,0000.0,0009.65,0003.58,0003.08
2022-07-09 17:50:00,,0833.1,5.01,0.00,29.3,27.9,00.0,37.9,31.2,20.4,0000.0,0009.73,0003.61,0003.11
2022-07-09 17:51:00,,0833.1,5.00,0.00,29.3,27.3,00.0,37.9,31.1,19.6,0000.0,0009.80,0003.62,0003.12
2022-07-09 17:52:00,,0833.1,5.00,0.00,29.2,27.1,00.0,37.9,31.1,19.3,0000.0,0009.04,0003.62,0003.09
2022-07-09 17:53:00,,0833.1,5.00,0.00,29.2,27.2,00.0,37.9,31.0,18.0,0000.0,0008.93,0003.61,0003.06
2022-07-09 17:54:00,,0833.1,5.01,0.00,29.2,27.3,00.0,37.9,31.0,17.0,0000.0,0008.95,0003.59,0003.01
2022-07-09 17:55:00,,0833.1,4.98,0.00,29.2,27.5,00.0,37.9,31.0,16.0,0000.0,0009.02,0003.56,0002.96
2022-07-09 17:56:00,,0833.1,4.98,0.00,29.2,27.7,00.0,37.9,31.1,14.7,0000.0,0009.21,0003.53,0002.89
2022-07-09 17:57:00,,0833.0,5.01,0.00,29.3,27.9,00.0,37.9,31.2,14.8,0000.0,0008.83,0003.51,0002.80
2022-07-09 17:58:00,,0833.0,5.00,0.00,29.3,27.8,00.0,37.9,31.2,15.4,0000.0,0008.12,0003.45,0002.72
2022-07-09 17:59:00,,0833.0,5.00,0.00,29.3,27.2,00.0,37.9,31.1,15.8,0000.0,0007.88,0003.42,0002.67
